Lid_Strength_Index
8 7 6 4 3 3 2 2 2 4 6 1 1 1 1 2 1 2 2 2 2 2
9 8 7 5 3 2 2 2 4 4 6 4 1 1 1 1 2 2 1 1 1 2
9 9 8 7 6 6 4 5 7 6 7 9 2 1 1 1 1 1 1 1 2 2
10 9 8 8 9 9 9 8 9 10 10 10 9 6 3 3 2 2 2 1 2 2
12 12 10 10 10 10 12 11 10 11 12 12 11 11 10 9 8 8 8 8 8 9
13 14 12 12 12 12 12 13 13 13 13 14 13 12 12 12 10 11 11 12 12 12
14 15 14 13 13 14 14 15 15 15 15 16 15 15 15 15 15 14 14 13 14 14
14 14 14 14 15 15 15 15 15 15 15 16 16 17 16 16 16 16 15 15 14 15
14 14 15 15 15 15 15 16 16 16 16 16 15 16 16 17 17 17 17 17 17 16
15 15 15 15 14 16 17 17 17 18 17 17 16 16 16 16 17 17 17 17 17 17
17 16 16 16 16 16 16 18 19 18 18 18 17 16 16 15 16 16 16 16 16 16
15 16 17 18 18 17 18 18 20 19 19 19 17 15 15 16 15 15 16 15 15 16
15 16 17 17 17 17 17 18 18 19 20 18 18 15 15 16 16 16 16 15 15 14
14 15 16 16 17 18 18 19 19 19 19 19 17 16 13 14 16 16 15 15 15 14